Weather Roundup
Issued by NWS Springfield, MO

Home | Current Version | Previous Version | Text Only | Print | Product List | Glossary On
Versions: 1 2 3 4 5 6 7 8 9 10 11 12 13 14 15 16 17 18 19 20 21 22 23 24 25 26 27 28 29 30 31 32 33 34 35 36 37 38 39 40 41 42 43 44 45 46 47 48 49 50
000
NZUS99 KSGF 171459
HRRSGF

HOURLY WEATHER
NATIONAL WEATHER SERVICE SPRINGFIELD MO
1000 AM CDT WED SEP 17 2014

......SGF CWA......

CITY           SKY/WX    TMP DP  RH WIND       PRES   REMARKS
SPRINGFIELD    TSTM      66  64  93 S9        29.98S FOG
JOPLIN         SUNNY     77  70  79 SW18G28   29.94S
WEST PLAINS    LGT RAIN  60  58  92 E5        30.06R FOG
ROLLA          LGT RAIN  58  57  97 SE13      29.98F
OSAGE BEACH    CLOUDY    63  61  94 SE5       29.96R
BRANSON        FOG       66  66 100 CALM      30.00R VSB 1/4

......SURROUNDING SGF CWA......

CITY           SKY/WX    TMP DP  RH WIND       PRES   REMARKS
CHANUTE        SUNNY     77  70  79 SW15      29.92S
PARSONS        SUNNY     78  71  79 SW10      29.94R
COFFEYVILLE    SUNNY     76  70  82 S13       29.93S
EMPORIA        SUNNY     74  68  81 NE5       29.91R
SILOAM SPRINGS PTSUNNY   72  66  83 SW12      30.00F
HARRISON AR    CLOUDY    67  67 100 SE9       30.01R
NEAR YELLVILLE CLOUDY    64  57  77 SE3       30.02S

......KANSAS AND MISSOURI......

CITY           SKY/WX    TMP DP  RH WIND       PRES   REMARKS
KANSAS CTY INT DRZL/FOG  64  63  96 E7        29.94R VSB 1
DOWNTOWN KC    CLOUDY    65  63  93 E6        29.93S FOG
COLUMBIA         N/A    N/A N/A N/A MISG      29.97F
SEDALIA        LGT RAIN  64  62  93 SE5       29.95S FOG
ST JOSEPH      CLOUDY    64  61  90 E3        29.95R
ST LOUIS       CLOUDY    61  52  72 S9        30.05S
SPIRIT OF STL  CLOUDY    58  52  80 SE6       30.03S
KIRKSVILLE     CLOUDY    59  56  89 E6        30.00R
WICHITA        MOSUNNY   77  67  71 S9        29.91S
TOPEKA         CLOUDY    68  67  96 CALM      29.93R FOG
OLATHE         CLOUDY    66  66 100 S3        29.93S

......TENNESSEE......

CITY           SKY/WX    TMP DP  RH WIND       PRES   REMARKS
MEMPHIS        CLOUDY    70  58  65 E7        30.02S
NASHVILLE      CLOUDY    60  57  89 NE3       30.06R FOG

......ARKANSAS.......

CITY           SKY/WX    TMP DP  RH WIND       PRES   REMARKS
FAYETTEVILLE   MOSUNNY   73  68  84 SW13      30.00R
FT SMITH       CLOUDY    71  66  84 NE5       29.99S HAZE
LITTLE ROCK    PTSUNNY   72  62  71 SE6       30.02R

......OKLAHOMA.......

CITY           SKY/WX    TMP DP  RH WIND       PRES   REMARKS
TULSA          MOSUNNY   78  70  76 S9        29.95R
PONCA CITY     SUNNY     79  69  71 SW13      29.92S
MCALESTER      PTSUNNY   79  70  74 S7        29.98S
OKLAHOMA CITY  PTSUNNY   79  69  71 S10       29.96S

......IOWA............

CITY           SKY/WX    TMP DP  RH WIND       PRES   REMARKS
DES MOINES     PTSUNNY   62  55  77 SE5       29.97R
QUAD CITIES    CLOUDY    60  52  74 SW3       30.02R

......ILLINOIS........

CITY           SKY/WX    TMP DP  RH WIND       PRES   REMARKS
QUINCY         CLOUDY    58  53  84 SE8       30.02R
CHICAGO        MOSUNNY   60  45  57 VRB5      30.03F



USA.gov is the U.S. government's official web portal to all federal, state and local government web resources and services.